Location: Oak Glen
(34.0495°N, 116.9470°E)
Time: 15:31:57
(UTC-07:00)

Vanguard 1 - Visible Passes

Search period start: 18 July 2018 00:00
Search period end: 28 July 2018 00:00
Orbit: 650 x 3832 km, 34.2° (Epoch: 17 July)

Date Brightness Start Highest point End Pass type
(mag) Time Alt. Az. Time Alt. Az. Time Alt. Az.
18 Jul 11.7 06:46:48 10° SW 06:49:07 18° SSW 06:49:07 18° SSW visible
18 Jul 9.5 11:33:26 66° ESE 11:33:26 66° ESE 11:38:36 10° ESE visible
19 Jul 11.8 04:48:26 10° S 04:52:49 14° SSE 04:56:19 10° SE visible
19 Jul 11.6 07:07:23 10° SW 07:09:52 20° SW 07:09:52 20° SW visible
19 Jul 9.3 11:53:46 65° S 11:53:46 65° S 11:59:43 10° ESE visible
20 Jul 11.5 05:07:24 10° SSW 05:14:01 21° SSE 05:17:46 13° ESE visible
20 Jul 11.7 07:28:16 10° WSW 07:30:33 20° SW 07:30:33 20° SW visible
20 Jul 9.6 12:14:11 48° SW 12:14:37 50° SSW 12:20:41 10° SE visible
21 Jul 11.1 05:27:20 10° SSW 05:35:09 29° SSE 05:38:21 19° ESE visible
21 Jul 11.8 07:49:19 10° WSW 07:51:08 18° WSW 07:51:08 18° WSW visible
21 Jul 10.0 12:34:42 34° SW 12:35:33 36° SSW 12:41:26 10° SE visible
22 Jul 10.7 05:47:47 10° SW 05:56:14 39° SSE 05:58:51 27° ESE visible
22 Jul 12.0 08:10:30 10° WSW 08:11:37 15° WSW 08:11:37 15° WSW visible
22 Jul 10.5 12:55:18 23° SW 12:56:31 26° SSW 13:01:50 10° SSE visible
23 Jul 10.3 06:08:36 10° SW 06:17:16 51° SSE 06:19:14 37° ESE visible
23 Jul 12.3 08:31:44 10° W 08:31:59 11° W 08:31:59 11° W visible
23 Jul 11.0 13:15:58 16° SW 13:17:30 17° SSW 13:21:41 10° SSE visible
24 Jul 10.0 06:29:40 10° WSW 06:38:16 64° SSE 06:39:31 52° ESE visible
24 Jul 11.5 13:37:08 10° SW 13:38:33 11° SSW 13:40:04 10° SSW visible
25 Jul 9.7 06:50:56 10° WSW 06:59:15 77° SSE 06:59:41 73° SE visible
26 Jul 11.1 04:47:52 10° SW 04:59:20 48° SSE 05:05:46 10° E visible
26 Jul 9.8 07:12:17 10° W 07:19:47 77° WSW 07:19:47 77° WSW visible
27 Jul 10.8 05:08:53 10° WSW 05:20:25 60° SSE 05:26:44 10° E visible
27 Jul 10.3 07:33:42 10° W 07:39:47 54° W 07:39:47 54° W visible
